Regional Weather Roundup
Issued by NWS

Current Version | Previous Version | Text Only | Print | Product List | Glossary Off
Versions: 1 2 3 4 5 6 7 8 9 10 11 12 13 14 15 16 17 18 19 20 21 22 23 24 25 26 27 28 29 30 31 32 33 34 35 36 37 38 39 40 41 42 43 44 45 46 47 48 49 50

823
ASUS44 KMEG 251210
RWRTN
TENNESSEE HOURLY STATE WEATHER ROUNDUP
NATIONAL WEATHER SERVICE MEMPHIS TN
700 AM CDT SAT JUN 25 2016

TNZ002-004-019-021-049-052-054-088>092-251300-
WEST TENNESSEE

CITY           SKY/WX    TMP DP  RH WIND       PRES   REMARKS
MEMPHIS INTL   MOSUNNY   83  74  74 SW5       30.08R
NWS MEMPHIS      N/A     78 N/A N/A MISG        N/A
JACKSON        SUNNY     75  73  93 CALM      30.09R
DYERSBURG      SUNNY     75  73  94 CALM      30.08R
UNION CITY     SUNNY     73  73 100 CALM      30.08R
PARIS          SUNNY     75  72  88 CALM      30.10R
LEXINGTON      CLOUDY    73  73 100 CALM      30.09S VSB 0
$$

TNZ008-025-027-028-033-062-065-066-251300-
NORTH MIDDLE TENNESSEE

CITY           SKY/WX    TMP DP  RH WIND       PRES   REMARKS
NASHVILLE      CLOUDY    75  71  87 CALM      30.11R
CLARKSVILLE    CLOUDY    75  72  90 CALM      30.10R
SMYRNA         CLOUDY    75  73  93 CALM      30.12R
COOKEVILLE     SUNNY     72  70  94 CALM      30.12R
CROSSVILLE     SUNNY     67  66  97 CALM      30.17R FOG
$$

TNZ061-075-076-078-094-096-097-251300-
SOUTH MIDDLE TENNESSEE

CITY           SKY/WX    TMP DP  RH WIND       PRES   REMARKS
FAYETTEVILLE   SUNNY     75  70  83 CALM      30.12S HAZE
TULLAHOMA      SUNNY     73  73 100 CALM      30.14R
WINCHESTER     SUNNY     72  70  94 N3        30.13R
MCMINNVILLE      N/A     72  72 100 CALM      30.13R
COLUMBIA       SUNNY    N/A N/A N/A CALM      30.10R
SHELBYVILLE    SUNNY     75  73  94 CALM      30.13R
$$

TNZ017-018-042-046-047-251300-
NORTHEAST TENNESSEE

CITY           SKY/WX    TMP DP  RH WIND       PRES   REMARKS
TRI CITIES     MOSUNNY   67  64  90 CALM      30.17R
ELIZABETHTON   SUNNY     68  64  88 CALM      30.17R
$$

TNZ012-013-036-069-073-074-251300-
CENTRAL EAST TENNESSEE

CITY           SKY/WX    TMP DP  RH WIND       PRES   REMARKS
KNOXVILLE      MOSUNNY   72  69  90 S3        30.12R FOG
OAK RIDGE      SUNNY     71  66  84 CALM      30.14R
GATLINBURG     SUNNY     70  66  88 CALM      30.12R
MORRISTOWN     SUNNY     72  68  88 CALM      30.14R
$$

TNZ083-085-099-251300-
SOUTHEAST TENNESSEE

CITY           SKY/WX    TMP DP  RH WIND       PRES   REMARKS
CHATTANOOGA    PTSUNNY   77  71  82 CALM      30.11R
$$

SKY/WX REPORTED AS FAIR MEANS FEW OR NO CLOUDS BELOW
12 THOUSAND FEET.





USA.gov is the U.S. government's official web portal to all federal, state and local government web resources and services.